Flag for U.S.A. Weather past 2 weeks in Lincoln, Nebraska, U.S.A.

Now
56 °F

Clear.


Feels Like: 56 °F
Forecast: 45 / 70 °F
Wind: No wind

Location: Lincoln Municipal Airport

Current Time: Oct 20, 2014 at 12:22:20 AM

Latest Report: Oct 19, 2014 at 9:54 PM


Visibility: 10 mi

Pressure: 29.98 "Hg

Humidity: 72%

Dew point: 47 °F

Location of LincolnLocation

Historic Weather in Lincoln — Graph

°F

Lincoln temperature yesterday

Maximum temperature yesterday: 73 °F (at 3:54 PM)
Minimum temperature yesterday: 37 °F (at 2:54 AM)
Average temperature yesterday: 55 °F

Past Weeks' High & Low Weather Summary

 TemperatureHumidityPressure
High79 °F (Oct 16, 2:54 PM)93% (Oct 13, 12:01 AM)31.00 "Hg (Oct 13, 12:01 AM)
Low30 °F (Oct 11, 7:54 AM)23% (Oct 16, 3:57 PM)29.64 "Hg (Oct 6, 6:54 PM)
Average55 °F62%29.97 "Hg
* Reported Oct 4 9:54 PM — Oct 19 9:54 PM, Lincoln, Weather by CustomWeather, © 2014

Note: Actual official high and low records may vary slightly from our data, if they occured in-between our weather recording intervals... More about our weather records

Advertising

Lincoln weather history for previous 24 hours

 ConditionsComfort  
Time TempWeatherWind HumidityBarometerVisibility
9:54 PM
Oct 19
56 °FClear.No wind72%29.98 "Hg10 mi
8:54 PM62 °FClear.3 mph60%29.97 "Hg10 mi
7:54 PM59 °FClear.5 mph67%29.97 "Hg10 mi
6:54 PM65 °FSunny.5 mph52%29.96 "Hg10 mi
5:54 PM71 °FSunny.9 mph42%29.95 "Hg10 mi
4:54 PM73 °FSunny.15 mph38%29.95 "Hg10 mi
3:54 PM73 °FSunny.15 mph38%29.96 "Hg10 mi
2:54 PM71 °FSunny.14 mph41%29.97 "Hg10 mi
1:54 PM71 °FSunny.18 mph41%30.00 "Hg10 mi
12:54 PM68 °FSunny.16 mph44%30.03 "Hg10 mi
11:54 AM64 °FSunny.17 mph50%30.05 "Hg10 mi
10:54 AM59 °FSunny.20 mph58%30.07 "Hg10 mi
9:54 AM55 °FSunny.17 mph64%30.09 "Hg10 mi
8:54 AM49 °FSunny.10 mph77%30.10 "Hg10 mi
7:54 AM43 °FClear.6 mph82%30.11 "Hg10 mi
6:54 AM40 °FClear.5 mph89%30.12 "Hg10 mi
5:54 AM41 °FClear.5 mph86%30.13 "Hg10 mi
4:54 AM39 °FClear.6 mph86%30.14 "Hg10 mi
3:54 AM39 °FClear.6 mph86%30.14 "Hg9 mi
2:54 AM37 °FClear.5 mph89%30.16 "Hg7 mi
1:54 AM40 °FClear.5 mph83%30.17 "Hg8 mi
12:54 AM39 °FClear.5 mph86%30.17 "Hg8 mi
Weather by CustomWeather, © 2014

See weather overviewHow to use our weather pages